Aérodrome :
LOGIN :

S'inscrire | Disclaimer

   EN    FR    IT 

 










Légende :    VFR   VFR Marginal   IFR   IFR Intensif   IFR Très Intensif
Visi : 
Plafond : 
>= 8 km
>= 3000ft
5 à 8 km
1000 à 3000 ft
1500m à 5 km
500 à 1000 ft
800 à 1500m
200 à 500 ft
< 800m
< 200 ft
Symboles :   Orages  Brouillard  Fortes neiges  Fortes précipitations  Vent > 20 kt
SIGMETs :   Divers  Orages  Givrage  Turbulence  Onde Orograph.  Cendres Volcan.







- Altitude de l'aérodrome : 177 ft
- Code IATA : BRI


LIBD - Palese Macchie Bari

DERNIER METAR :
  • 171320Z 05005KT 020V090 8000 NSC 13/02 Q1027

METARs EXPIRÉS :
  • 171250Z 04005KT 8000 NSC 13/02 Q1027
  • 171220Z 01006KT 340V040 8000 NSC 13/02 Q1027
  • 171150Z 01005KT 320V040 8000 NSC 13/02 Q1027
  • 171120Z 36006KT 300V030 8000 NSC 13/01 Q1028
  • 171050Z 01007KT 330V030 8000 NSC 12/03 Q1028

TAF TAF LIBD
Valide du 17 à 12h jusqu'au 18 à 12h UTC


171100Z 1712/1812 33010KT 8000 NSC
BECMG 1716/1718 VRB05KT
Pas de NOTAMs connus pour ce terrain.



MET'MAP, la Météo Aéronautique d'un coup d'oeil ! - Copyright ORBIFLY Décembre 2007 - Disclaimer

ORBIFLY MET'MAP TEAM :

Programmation & Développement : Alexandra Zaïnal
Conception & Développement : Baudouin d'Aumeries
Co-Programmation & Développement : Marc-Olivier Méhu
Soutien technique & logistique : Manuel Goepfert

Contact : metmap@orbifly.com




SOURCES & CREDITS :

   NOAA